This is the latest recevied weather packets stored in our database for station/object CA2RRL-10. If no packets are shown the sender has not sent any weather packets the latest 1 day(s).
| Time | Temp. | Humidity | Pressure | Rain* | Wind** | Luminosity | Snow |
|---|---|---|---|---|---|---|---|
| 1777919620 | 28.89° C | 13% | 1028.1 hPa | - | - | - | - |
| 1777918719 | 28.89° C | 12% | 1028.2 hPa | - | - | - | - |
| 1777917819 | 28.89° C | 13% | 1028.4 hPa | - | - | - | - |
| 1777916919 | 28.33° C | 14% | 1028.7 hPa | - | - | - | - |
| 1777916019 | 28.33° C | 16% | 1029 hPa | - | - | - | - |
| 1777915119 | 27.78° C | 17% | 1029.4 hPa | - | - | - | - |
| 1777914219 | 27.22° C | 17% | 1029.5 hPa | - | - | - | - |
| 1777913319 | 26.11° C | 19% | 1029.7 hPa | - | - | - | - |
| 1777912419 | 25.56° C | 20% | 1029.8 hPa | - | - | - | - |
| 1777911519 | 24.44° C | 21% | 1029.8 hPa | - | - | - | - |
| 1777910619 | 23.33° C | 22% | 1030 hPa | - | - | - | - |
| 1777909719 | 22.22° C | 24% | 1030.1 hPa | - | - | - | - |
| 1777908818 | 21.11° C | 25% | 1030.4 hPa | - | - | - | - |
| 1777907918 | 20° C | 27% | 1030.7 hPa | - | - | - | - |
| 1777907018 | 18.89° C | 28% | 1030.8 hPa | - | - | - | - |
| 1777906118 | 17.78° C | 30% | 1030.9 hPa | - | - | - | - |
| 1777905218 | 16.11° C | 32% | 1030.9 hPa | - | - | - | - |
| 1777904318 | 15° C | 33% | 1030.9 hPa | - | - | - | - |
| 1777903418 | 13.89° C | 35% | 1031 hPa | - | - | - | - |
| 1777902518 | 13.33° C | 36% | 1031.1 hPa | - | - | - | - |
| 1777901618 | 12.22° C | 38% | 1031 hPa | - | - | - | - |
| 1777900718 | 11.11° C | 44% | 1031 hPa | - | - | - | - |
| 1777899818 | 10.56° C | 46% | 1031.1 hPa | - | - | - | - |
| 1777898917 | 9.44° C | 48% | 1031 hPa | - | - | - | - |
| 1777898017 | 8.89° C | 50% | 1031 hPa | - | - | - | - |
* Rain since midnight (hover to see other rain measurements)
** Current wind speed in m/s (hover to see current wind gust speed)